If you wish to contribute or participate in the discussions about articles you are invited to join SKYbrary as a registered user

 Actions

Troyes-Barberey Airport

From SKYbrary Wiki

LFQB
Airport
ICAO: LFQB – IATA: QYR
Summary
Name Troyes-Barberey Airport
Region Europe
Territory France FR.gif
Location , Champagne-Ardenne
Serving Troyes
Elevation 118.262 m
388 ft
388 ft118.262 m
Type medium airport
Coordinates 48° 19' 19.69" N, 4° 1' 0.13" E
Runways
Designator Length Width Surface ROPS
5/23 780 m2,559.055 ft
100 m328.084 ft
GRS /
18/36 1650 m5,413.386 ft
30 m98.425 ft
ASP /
18R/36L 900 m2,952.756 ft
100 m328.084 ft
GRS /


METAR
Observation LFQB 220400Z AUTO 34003KT 5000 BR NSC M05/M06 Q1035
Station Troyes
Date/Time 22 January 2020 04:00:00
Wind direction 340°
Wind speed 03 kts
Lowest cloud amount nil significant cloud
Temperature
Dew point
Humidity 92%
QNH 1035 hPa
Weather condition n/a